FW0267 Weather Reports


time (UTC)temp
F
wind
direction
speed
knots
gust
knots
rain 1hr
in
rain 24hr
in
rain mn
in
humidity
%
barometer
mb
20260503034537 51 98 0.0 0.0 0.00 0.00 0.00 15 1013.9
20260503034036 51 98 0.0 0.0 0.00 0.00 0.00 16 1014.0
20260503033534 51 98 0.0 0.0 0.00 0.00 0.00 17 1014.0
20260503033038 51 98 0.0 0.0 0.00 0.00 0.00 18 1013.9
20260503032531 51 98 0.0 0.0 0.00 0.00 0.00 20 1013.9
20260503032032 52 98 0.0 0.0 0.00 0.00 0.00 21 1013.8
20260503031528 52 98 0.0 0.0 0.00 0.00 0.00 22 1013.9
20260503031028 52 98 0.0 0.0 0.00 0.00 0.00 23 1014.0
20260503030525 52 98 0.0 0.0 0.00 0.00 0.00 24 1014.0
20260503030044 52 98 0.0 0.0 0.00 0.00 0.00 25 1014.0
20260503025523 52 98 0.0 0.0 0.00 0.00 0.00 27 1014.0
20260503025023 52 98 0.0 0.0 0.00 0.00 0.00 28 1014.0
20260503024529 52 98 0.0 0.0 0.00 0.00 0.00 28 1014.0
20260503024019 52 98 0.0 0.0 0.00 0.00 0.00 30 1014.0
20260503023517 52 98 0.0 0.0 0.00 0.00 0.00 31 1014.0
20260503023016 52 98 0.0 0.0 0.00 0.00 0.00 32 1013.8
20260503022514 53 98 0.0 0.0 0.00 0.00 0.00 33 1013.9
20260503022013 53 98 0.0 0.0 0.00 0.00 0.00 34 1013.7
20260503021512 53 98 0.0 0.0 0.00 0.00 0.00 36 1013.8
20260503021010 53 98 0.0 0.0 0.00 0.00 0.00 38 1013.7
20260503020510 53 98 0.0 0.0 0.00 0.00 0.00 40 1013.6
20260503020007 53 98 0.0 0.0 0.00 0.00 0.00 40 1013.6
20260503015505 53 98 0.0 0.0 0.00 0.00 0.00 40 1013.7
20260503015007 53 98 0.0 0.0 0.00 0.00 0.00 40 1013.7
20260503014505 53 98 0.0 0.0 0.00 0.00 0.00 40 1013.6
20260503014001 54 98 0.0 0.0 0.00 0.00 0.00 40 1013.6
20260503013600 54 98 0.0 0.0 0.00 0.00 0.00 41 1013.5
20260503013059 54 98 0.0 0.0 0.00 0.00 0.00 41 1013.4
20260503012557 54 98 0.0 0.0 0.00 0.00 0.00 42 1013.5
20260503012055 54 98 0.0 0.0 0.00 0.00 0.00 43 1013.4
20260503011559 54 98 0.0 0.0 0.00 0.00 0.00 45 1013.3
20260503011053 54 98 0.0 0.0 0.00 0.00 0.00 47 1013.4
20260503010551 54 98 0.0 0.0 0.00 0.00 0.00 47 1013.4
20260503010105 55 98 0.0 0.0 0.00 0.00 0.00 49 1013.4
20260503005552 55 98 0.0 0.0 0.00 0.00 0.00 49 1013.4
20260503005048 55 98 0.0 0.0 0.00 0.00 0.00 51 1013.3
20260503004546 55 98 0.0 0.0 0.00 0.00 0.00 52 1013.2
20260503004044 55 98 0.0 0.0 0.00 0.00 0.00 53 1013.1
20260503003542 56 98 0.0 0.0 0.00 0.00 0.00 54 1013.0
20260503003052 56 98 0.0 0.0 0.00 0.00 0.00 55 1012.8
20260503002540 56 98 0.0 0.0 0.00 0.00 0.00 55 1012.8
20260503002041 56 98 0.0 0.0 0.00 0.00 0.00 55 1012.7
20260503001537 56 98 0.0 0.0 0.00 0.00 0.00 55 1012.8
20260503001039 57 98 0.0 0.0 0.00 0.00 0.00 55 1012.6
20260503000534 57 98 0.0 0.0 0.00 0.00 0.00 55 1012.6
20260503000035 57 98 0.0 0.0 0.00 0.00 0.00 55 1012.5
20260502235531 57 98 0.0 0.0 0.00 0.00 0.00 55 1012.4
20260502235034 57 98 0.0 0.0 0.00 0.00 0.00 54 1012.3
20260502234528 57 98 0.0 0.0 0.00 0.00 0.00 54 1012.2
20260502234027 58 98 0.0 0.0 0.00 0.00 0.00 54 1012.2
20260502233524 58 98 0.0 0.0 0.00 0.00 0.00 54 1012.0
20260502233024 58 98 0.0 0.0 0.00 0.00 0.00 54 1012.0
20260502232522 58 98 0.0 0.0 0.00 0.00 0.00 52 1011.9
20260502232020 58 98 0.0 0.0 0.00 0.00 0.00 50 1011.7
20260502231519 58 98 0.0 0.0 0.00 0.00 0.00 51 1011.7
20260502231018 58 98 0.0 0.0 0.00 0.00 0.00 48 1011.6
20260502230517 58 98 0.0 0.0 0.00 0.00 0.00 48 1011.6
20260502230016 59 98 0.0 0.0 0.00 0.00 0.00 47 1011.5
20260502225517 59 98 0.0 0.0 0.00 0.00 0.00 48 1011.5
20260502225012 59 98 0.0 0.0 0.00 0.00 0.00 49 1011.5
20260502224511 59 98 0.0 0.0 0.00 0.00 0.00 47 1011.4
20260502224009 59 98 0.0 0.0 0.00 0.00 0.00 48 1011.4
20260502223508 59 98 0.0 0.0 0.00 0.00 0.00 47 1011.4
20260502223009 59 98 0.0 0.0 0.00 0.00 0.00 47 1011.4
20260502222505 59 98 0.0 0.0 0.00 0.00 0.00 45 1011.4
20260502222005 59 98 0.0 0.0 0.00 0.00 0.00 45 1011.4
20260502221501 59 82 0.0 0.0 0.00 0.00 0.00 46 1011.5
20260502221101 59 82 0.0 0.9 0.00 0.00 0.00 44 1011.5
20260502220558 59 82 0.0 0.9 0.00 0.00 0.00 44 1011.6
20260502220057 59 77 0.0 0.0 0.00 0.00 0.00 46 1011.6
20260502215556 59 77 0.0 1.7 0.00 0.00 0.00 45 1011.8
20260502215053 59 103 0.0 1.7 0.00 0.00 0.00 45 1011.8
20260502214557 59 319 0.0 0.0 0.00 0.00 0.00 47 1011.8
20260502214052 59 319 0.0 0.0 0.00 0.00 0.00 44 1011.7
20260502213549 59 317 0.0 3.5 0.00 0.00 0.00 44 1011.8
20260502213048 60 317 0.0 3.5 0.00 0.00 0.00 44 1011.9
20260502212548 60 295 0.0 1.7 0.00 0.00 0.00 46 1011.8
20260502212044 60 295 0.0 3.5 0.00 0.00 0.00 45 1011.8
20260502211549 60 294 0.9 3.5 0.00 0.00 0.00 45 1011.7
20260502211042 60 334 0.0 1.7 0.00 0.00 0.00 47 1011.7
20260502210540 60 334 0.0 1.7 0.00 0.00 0.00 46 1011.6
20260502210039 60 334 0.9 3.5 0.00 0.00 0.00 45 1011.5
20260502205542 60 60 0.0 1.7 0.00 0.00 0.00 45 1011.6
20260502205036 60 88 0.0 1.7 0.00 0.00 0.00 44 1011.6
20260502204535 60 82 0.0 0.0 0.00 0.00 0.00 43 1011.6
20260502204034 60 82 0.0 0.0 0.00 0.00 0.00 43 1011.6
20260502203532 60 82 0.0 0.0 0.00 0.00 0.00 43 1011.6
20260502203031 61 82 0.0 1.7 0.00 0.00 0.00 43 1011.8
20260502202528 61 82 0.0 1.7 0.00 0.00 0.00 43 1011.8
20260502202027 61 82 0.0 2.6 0.00 0.00 0.00 42 1011.8
20260502201531 61 82 0.0 2.6 0.00 0.00 0.00 42 1011.8
20260502201029 61 49 0.0 0.0 0.00 0.00 0.00 44 1012.0
20260502200523 61 49 0.0 0.0 0.00 0.00 0.00 41 1012.1
20260502200022 61 49 0.0 0.0 0.00 0.00 0.00 46 1012.1
20260502195521 61 49 0.0 0.9 0.00 0.00 0.00 46 1012.0
20260502195019 61 49 0.0 1.7 0.00 0.00 0.00 44 1012.1
20260502194517 61 49 0.0 1.7 0.00 0.00 0.00 41 1012.1
20260502194017 61 146 0.0 2.6 0.00 0.00 0.00 44 1012.2
20260502193514 61 146 0.0 2.6 0.00 0.00 0.00 41 1012.3
20260502193013 61 328 0.0 1.7 0.00 0.00 0.00 44 1012.3
20260502192512 61 326 0.9 4.3 0.00 0.00 0.00 42 1012.4
20260502192009 61 28 0.9 4.3 0.00 0.00 0.00 43 1012.5
20260502191509 61 206 0.0 2.6 0.00 0.00 0.00 44 1012.6
20260502191009 60 60 0.0 0.9 0.00 0.00 0.00 46 1012.6
20260502190505 60 60 0.0 3.5 0.00 0.00 0.00 44 1012.6
20260502190007 60 61 0.9 3.5 0.00 0.00 0.00 44 1012.7
20260502185502 60 211 0.9 2.6 0.00 0.00 0.00 46 1012.7
20260502185001 60 87 0.0 2.6 0.00 0.00 0.00 46 1012.9
20260502184604 60 87 0.0 2.6 0.00 0.00 0.00 43 1012.9
20260502184101 60 240 0.9 3.5 0.00 0.00 0.00 44 1013.0
20260502183557 60 206 0.9 3.5 0.00 0.00 0.00 44 1012.8
20260502183056 60 333 0.9 3.5 0.00 0.00 0.00 45 1012.9
20260502182553 60 165 0.0 2.6 0.00 0.00 0.00 46 1012.9
20260502182052 59 303 0.0 2.6 0.00 0.00 0.00 45 1013.3
20260502181607 59 105 0.9 2.6 0.00 0.00 0.00 45 1013.3
20260502181049 59 103 0.9 2.6 0.00 0.00 0.00 46 1013.4
20260502180547 59 342 0.0 2.6 0.00 0.00 0.00 45 1013.4
20260502164023 55 325 0.0 2.6 0.00 0.00 0.00 53 1014.6
20260502163521 55 325 0.9 2.6 0.00 0.00 0.00 53 1014.5
20260502163020 54 57 0.0 0.0 0.00 0.00 0.00 54 1014.6
20260502162520 54 57 0.0 0.9 0.00 0.00 0.00 54 1014.6
20260502162017 53 101 0.0 1.7 0.00 0.00 0.00 53 1014.7
20260502161515 53 101 0.0 1.7 0.00 0.00 0.00 52 1014.7
20260502161015 53 101 0.0 4.3 0.00 0.00 0.00 52 1014.7
20260502160514 53 111 0.0 4.3 0.00 0.00 0.00 51 1014.7
20260502152059 55 239 0.9 4.3 0.00 0.00 0.00 50 1015.1
20260502151606 55 311 0.9 4.3 0.00 0.00 0.00 51 1014.7
20260502151100 55 330 0.0 2.6 0.00 0.00 0.00 52 1014.7
20260502150555 55 360 0.9 2.6 0.00 0.00 0.00 53 1014.7
20260502130522 52 79 0.0 2.6 0.00 0.00 0.00 35 1014.3
20260502123510 52 329 0.0 2.6 0.00 0.00 0.00 16 1014.0
20260502123010 51 317 0.0 2.6 0.00 0.00 0.00 11 1013.9
20260502122508 51 327 0.0 2.6 0.00 0.00 0.00 8 1014.1
20260502122010 51 327 0.9 3.5 0.00 0.00 0.00 5 1013.9
20260502121509 51 12 0.9 3.5 0.00 0.00 0.00 3 1013.9
20260502121006 51 327 0.9 5.2 0.00 0.00 0.00 1 1013.7
20260502120504 51 130 0.9 5.2 0.00 0.00 0.00 1 1013.7
20260502120107 51 57 0.9 3.5 0.00 0.00 0.00 1 1013.7
20260502115600 51 92 0.9 3.5 0.00 0.00 0.00 1 1013.7
20260502115058 51 348 0.9 4.3 0.00 0.00 0.00 1 1013.8
20260502114600 51 317 0.0 4.3 0.00 0.00 0.00 1 1013.9
20260502114056 51 306 0.0 4.3 0.00 0.00 0.00 1 1013.8
20260502113554 51 32 0.9 4.3 0.00 0.00 0.00 1 1013.9
20260502113053 51 120 0.9 2.6 0.00 0.00 0.00 1 1013.9
20260502112551 51 56 0.0 2.6 0.00 0.00 0.00 1 1013.8
20260502112049 50 296 0.0 2.6 0.00 0.00 0.00 1 1013.8
20260502111549 50 146 0.0 2.6 0.00 0.00 0.00 1 1013.7
20260502111046 50 139 0.0 0.0 0.00 0.00 0.00 1 1013.8
20260502110546 50 135 0.0 0.9 0.00 0.00 0.00 1 1013.9
20260502110045 50 135 0.0 0.9 0.00 0.00 0.00 1 1014.0
20260502105543 50 135 0.0 0.9 0.00 0.00 0.00 1 1013.9
20260502105042 50 121 0.0 2.6 0.00 0.00 0.00 1 1013.9
20260502104541 50 76 0.9 2.6 0.00 0.00 0.00 1 1013.8
20260502104039 50 109 0.0 1.7 0.00 0.00 0.00 1 1013.7
20260502103540 50 100 0.0 0.9 0.00 0.00 0.00 1 1013.6
20260502103036 50 86 0.0 0.9 0.00 0.00 0.00 1 1013.7
20260502102534 50 92 0.0 0.9 0.00 0.00 0.00 1 1013.5
20260502102033 50 98 0.0 0.9 0.00 0.00 0.00 1 1013.5
20260502101537 49 101 0.0 0.0 0.00 0.00 0.00 1 1013.5
20260502101029 49 101 0.0 0.0 0.00 0.00 0.00 1 1013.5
20260502100528 49 101 0.0 0.0 0.00 0.00 0.00 1 1013.4
20260502091514 50 174 0.0 0.0 0.00 0.00 0.00 1 1013.0
20260502091012 50 174 0.0 0.0 0.00 0.00 0.00 1 1013.0
20260502090510 50 174 0.0 0.0 0.00 0.00 0.00 1 1013.1
20260502080104 51 174 0.0 0.0 0.00 0.00 0.00 1 1012.6
20260502071037 52 174 0.0 0.0 0.00 0.00 0.00 1 1012.5
20260502070537 52 174 0.0 0.0 0.00 0.00 0.00 1 1012.4
20260502070037 52 174 0.0 0.0 0.00 0.00 0.00 1 1012.5
20260502065533 52 174 0.0 0.0 0.00 0.00 0.00 1 1012.4
20260502065034 52 174 0.0 0.0 0.00 0.00 0.00 1 1012.6
20260502064546 52 174 0.0 0.0 0.00 0.00 0.00 1 1012.5
20260502064030 52 174 0.0 0.0 0.00 0.00 0.00 1 1012.4
20260502063529 53 174 0.0 0.0 0.00 0.00 0.00 1 1012.5
20260502063033 53 174 0.0 0.0 0.00 0.00 0.00 1 1012.5
20260502062527 53 174 0.0 0.0 0.00 0.00 0.00 1 1012.4
20260502062023 53 174 0.0 0.0 0.00 0.00 0.00 1 1012.6
20260502061520 53 174 0.0 0.0 0.00 0.00 0.00 1 1012.7
20260502061019 53 174 0.0 0.0 0.00 0.00 0.00 1 1012.8
20260502060518 53 174 0.0 0.9 0.00 0.00 0.00 1 1012.8
20260502060016 54 174 0.0 1.7 0.00 0.00 0.00 1 1012.7
20260502055515 54 174 0.0 1.7 0.00 0.00 0.00 1 1012.9
20260502055014 54 174 0.0 0.9 0.00 0.00 0.00 1 1012.9
20260502054513 54 174 0.0 0.9 0.00 0.00 0.00 1 1012.8
20260502054011 54 174 0.0 0.0 0.00 0.00 0.00 1 1012.8
20260502053509 54 174 0.0 0.0 0.00 0.00 0.00 1 1012.8
20260502053008 54 174 0.0 0.9 0.00 0.00 0.00 1 1012.8
20260502052508 54 174 0.0 1.7 0.00 0.00 0.00 2 1012.8
20260502052005 55 174 0.0 1.7 0.00 0.00 0.00 3 1012.7
20260502051504 55 160 0.0 1.7 0.00 0.00 0.00 4 1012.7
20260502051002 55 160 0.9 1.7 0.00 0.00 0.00 5 1012.9
20260502050501 55 161 0.0 1.7 0.00 0.00 0.00 6 1012.8
20260502050100 55 161 0.0 1.7 0.00 0.00 0.00 7 1012.9
20260502045558 55 159 0.0 1.7 0.00 0.00 0.00 8 1012.9
20260502045057 55 159 0.0 2.6 0.00 0.00 0.00 9 1012.9
20260502044556 55 159 0.9 2.6 0.00 0.00 0.00 10 1013.0
20260502044056 55 163 0.0 4.3 0.00 0.00 0.00 11 1013.0
20260502043555 55 165 0.0 4.3 0.00 0.00 0.00 12 1013.1
20260502043054 55 167 0.0 4.3 0.00 0.00 0.00 13 1013.2
20260502042551 56 154 0.9 1.7 0.00 0.00 0.00 14 1013.2
20260502042050 56 194 0.0 3.5 0.00 0.00 0.00 15 1013.2
20260502041550 56 194 0.9 3.5 0.00 0.00 0.00 17 1013.2
20260502041049 56 151 0.9 4.3 0.00 0.00 0.00 19 1013.1
20260502040548 56 155 0.0 3.5 0.00 0.00 0.00 20 1013.1
20260502040057 56 150 0.0 4.3 0.00 0.00 0.00 22 1013.2
20260502035546 56 142 0.0 0.0 0.00 0.00 0.00 23 1013.1
20260502035044 56 142 0.0 4.3 0.00 0.00 0.00 24 1013.0